EW1682 Weather Reports


time (UTC)temp
F
wind
direction
speed
knots
gust
knots
rain 1hr
in
rain 24hr
in
rain mn
in
humidity
%
barometer
mb
20260504004208 53 246 0.0 0.0 0.00 0.01 0.00 44 1021.3
20260504001719 56 246 0.0 0.0 0.00 0.01 0.00 38 1021.3
20260504001207 56 246 0.0 0.0 0.00 0.01 0.00 37 1021.3
20260504000211 56 246 0.0 0.0 0.00 0.01 0.00 37 1021.3
20260503234706 57 246 0.0 0.9 0.00 0.01 0.00 34 1021.3
20260503232218 58 238 0.9 2.6 0.00 0.01 0.00 31 1021.3
20260503230206 59 197 1.7 2.6 0.00 0.01 0.00 31 1021.3
20260503225718 59 228 1.7 2.6 0.00 0.01 0.00 31 1021.3
20260503225207 59 277 1.7 2.6 0.00 0.01 0.00 30 1021.3
20260503224709 59 270 1.7 2.6 0.00 0.01 0.00 30 1021.3
20260503224206 59 268 1.7 7.8 0.00 0.01 0.00 31 1021.3
20260503222723 59 265 4.3 7.8 0.00 0.01 0.00 30 1021.3
20260503220206 59 248 3.5 7.0 0.00 0.01 0.00 29 1021.3
20260503215207 59 240 3.5 7.0 0.00 0.01 0.00 30 1021.3
20260503214707 59 224 2.6 5.2 0.00 0.01 0.00 29 1021.3
20260503213218 59 232 2.6 6.1 0.00 0.01 0.00 30 1021.3
20260503210206 59 287 1.7 4.3 0.00 0.01 0.00 30 1021.3
20260503205209 60 273 0.9 4.3 0.00 0.01 0.00 30 1021.3
20260503204706 60 269 1.7 5.2 0.00 0.01 0.00 31 1021.3
20260503204210 59 263 2.6 10.4 0.00 0.01 0.00 31 1021.3
20260503201719 59 266 2.6 8.7 0.00 0.01 0.00 31 1021.3
20260503200206 59 350 2.6 7.8 0.00 0.01 0.00 32 1021.3
20260503195706 59 269 1.7 6.1 0.00 0.01 0.00 32 1021.3
20260503195206 59 297 4.3 6.1 0.00 0.01 0.00 32 1021.3
20260503194706 59 300 4.3 10.4 0.00 0.01 0.00 32 1021.3
20260503194209 59 291 4.3 10.4 0.00 0.01 0.00 33 1021.3
20260503191715 58 302 2.6 5.2 0.00 0.01 0.00 33 1021.3
20260503185707 58 292 2.6 6.1 0.00 0.01 0.00 34 1021.3
20260503185209 58 282 1.7 6.1 0.00 0.01 0.00 34 1021.3
20260503184707 57 341 1.7 7.8 0.00 0.01 0.00 35 1021.3
20260503182220 58 251 1.7 4.3 0.00 0.01 0.00 35 1021.3
20260503180209 56 279 2.6 7.0 0.00 0.01 0.00 36 1021.3
20260503175706 56 245 1.7 7.0 0.00 0.01 0.00 37 1021.3
20260503175205 55 300 1.7 2.6 0.00 0.01 0.00 38 1021.3
20260503174207 55 235 2.6 7.0 0.00 0.01 0.00 36 1021.3
20260503171715 56 235 1.7 4.3 0.00 0.01 0.00 36 1021.3
20260503170208 57 268 2.6 6.1 0.00 0.01 0.00 36 1021.3
20260503160206 55 297 2.6 11.3 0.00 0.01 0.00 37 1021.3
20260503150207 55 236 1.7 4.3 0.00 0.01 0.00 41 1021.3
20260503140208 53 5 2.6 5.2 0.00 0.01 0.00 46 1021.3
20260503130209 50 331 2.6 5.2 0.00 0.02 0.00 52 1021.3
20260503120206 46 239 1.7 4.3 0.00 0.02 0.00 56 1021.3
20260503100206 45 237 0.9 1.7 0.00 0.02 0.00 57 1021.3
20260503081211 48 325 1.7 5.2 0.00 0.02 0.00 51 1021.3
20260503071219 49 258 0.0 2.6 0.00 0.02 0.00 54 1021.3
20260503070207 49 242 0.9 1.7 0.00 0.02 0.00 54 1021.3
20260503040209 50 308 0.9 1.7 0.00 0.02 0.00 58 1021.3
20260503034208 50 312 0.0 0.9 0.00 0.02 0.00 59 1021.3
20260503024212 49 246 0.0 0.0 0.00 0.02 0.00 64 1021.3
20260503022208 49 246 0.0 0.0 0.00 0.02 0.00 67 1021.3
20260503020206 49 246 0.0 0.0 0.00 0.02 0.00 71 1021.3
20260503012707 50 246 0.0 0.0 0.00 0.02 0.00 78 1021.3
20260503010209 51 246 0.0 2.6 0.00 0.02 0.00 77 1021.3